Regional Weather Roundup
Issued by NWS

Home | Current Version | Previous Version | Graphics & Text | Print | Product List | Glossary On
Versions: 1 2 3 4 5 6 7 8 9 10 11 12 13 14 15 16 17 18 19 20 21 22 23 24 25 26 27 28 29 30 31 32 33 34 35 36 37 38 39 40 41 42 43 44 45 46 47 48 49 50
000
ASUS43 KLMK 290502
RWRKY
KENTUCKY REGIONAL WEATHER ROUNDUP
NATIONAL WEATHER SERVICE LOUISVILLE KY
100 AM EDT SUN MAY 29 2016

NOTE "FAIR" INDICATES FEW OR NO CLOUDS BELOW 12,000 FEET
WITH NO SIGNIFICANT WEATHER AND/OR OBSTRUCTIONS TO VISIBILITY.

KYZ001>023-026-027-061>063-070>075-290600-
WESTERN AND SOUTH CENTRAL KENTUCKY

CITY           SKY/WX    TMP DP  RH WIND       PRES   REMARKS
PADUCAH        CLEAR     72  63  73 S5        30.04S
HENDERSON      PTCLDY    72  64  78 S6        30.04S
OWENSBORO      PTCLDY    71  68  90 S3        30.07S
HOPKINSVILLE   NOT AVBL
BOWLING GREEN  CLOUDY    69  66  90 CALM      30.10R
GLASGOW        NOT AVBL
$$

KYZ024-025-028>034-038-045-046-053-290600-
NORTH CENTRAL KENTUCKY

CITY           SKY/WX    TMP DP  RH WIND       PRES   REMARKS
LOUISVILLE/SDF MOCLDY    72  64  76 SE5       30.08R
LOUISVILLE/LOU MOCLDY    73  63  70 CALM      30.09R
FORT KNOX      NOT AVBL
$$

KYZ035>037-039>044-047>052-055>060-089>105-290600-
NORTHEAST KENTUCKY

CITY           SKY/WX    TMP DP  RH WIND       PRES   REMARKS
LEXINGTON      PTCLDY    67  61  81 SE5       30.12R
COVINGTON      MOCLDY    67  62  84 S6        30.09S
FRANKFORT      MOCLDY    67  62  84 CALM      30.10R
$$

KYZ054-064>069-076>088-106>120-290600-
SOUTHEAST KENTUCKY

CITY           SKY/WX    TMP DP  RH WIND       PRES   REMARKS
JACKSON        PTCLDY    72  63  73 CALM      30.13S
LONDON         MOCLDY    70  63  78 NW3       30.14R
SOMERSET       NOT AVBL
MIDDLESBORO    PTCLDY    65  64  96 CALM      30.15R
MONTICELLO     PTCLDY    66  65  96 MISG      30.15R
$$





USA.gov is the U.S. government's official web portal to all federal, state and local government web resources and services.